Location: Znojmo
(48.8500°N, 16.0500°E)
Time: 21:21:33
(UTC+01:00)

ISS - Visible Passes

Search period start: 09 December 2018 00:00
Search period end: 19 December 2018 00:00
Orbit: 401 x 408 km, 51.6° (Epoch: 10 December)

Date Brightness Start Highest point End Pass type
(mag) Time Alt. Az. Time Alt. Az. Time Alt. Az.
09 Dec -3.8 16:46:18 10° WNW 16:49:34 65° NNE 16:52:49 10° E visible
09 Dec -2.4 18:22:55 10° W 18:25:52 35° SW 18:25:52 35° SW visible
10 Dec -3.2 17:30:37 10° WNW 17:33:50 55° SSW 17:36:18 15° SE visible
10 Dec -0.4 19:08:41 10° WSW 19:09:00 11° WSW 19:09:00 11° WSW visible
11 Dec -3.8 16:38:21 10° WNW 16:41:38 84° SSW 16:44:54 10° ESE visible
11 Dec -1.2 18:15:24 10° W 18:17:45 18° SW 18:19:41 12° S visible
12 Dec -1.9 17:22:47 10° W 17:25:42 29° SW 17:28:35 10° SSE visible
14 Dec -0.7 17:15:21 10° W 17:17:23 16° SW 17:19:25 10° S visible
